TimeCST,TemperatureF,Dew PointF,Humidity,Sea Level PressureIn,VisibilityMPH,Wind Direction,Wind SpeedMPH,Gust SpeedMPH,PrecipitationIn,Events,Conditions,WindDirDegrees,DateUTC
12:53 AM,36.0,32.0,86,30.25,10.0,SSW,6.9,-,N/A,,Clear,200,2013-01-06 06:53:00
1:53 AM,34.0,32.0,92,30.25,10.0,SSW,5.8,-,N/A,,Clear,200,2013-01-06 07:53:00
2:53 AM,34.0,32.0,92,30.24,10.0,SW,6.9,-,N/A,,Clear,220,2013-01-06 08:53:00
3:29 AM,33.8,32.0,93,30.23,10.0,SSW,8.1,-,N/A,,Scattered Clouds,210,2013-01-06 09:29:00
3:41 AM,35.6,33.8,93,30.23,10.0,SW,8.1,-,N/A,,Mostly Cloudy,230,2013-01-06 09:41:00
4:37 AM,37.4,35.6,93,30.22,7.0,WSW,10.4,-,N/A,,Overcast,240,2013-01-06 10:37:00
4:53 AM,37.0,36.0,96,30.23,6.0,WSW,12.7,-,N/A,,Overcast,250,2013-01-06 10:53:00
5:44 AM,37.4,35.6,93,30.23,1.8,WSW,9.2,-,N/A,,Overcast,240,2013-01-06 11:44:00
5:53 AM,37.0,36.0,96,30.24,2.0,WSW,10.4,-,N/A,,Overcast,250,2013-01-06 11:53:00
6:53 AM,37.0,36.0,96,30.25,6.0,WSW,8.1,-,N/A,,Overcast,240,2013-01-06 12:53:00
7:53 AM,37.9,36.0,93,30.26,6.0,SW,5.8,-,N/A,,Overcast,220,2013-01-06 13:53:00
8:53 AM,39.0,36.0,89,30.27,9.0,SW,8.1,-,N/A,,Overcast,230,2013-01-06 14:53:00
9:31 AM,41.0,37.4,87,30.27,10.0,WSW,8.1,-,N/A,,Scattered Clouds,240,2013-01-06 15:31:00
9:53 AM,42.1,36.0,79,30.28,10.0,West,9.2,-,N/A,,Scattered Clouds,260,2013-01-06 15:53:00
10:05 AM,44.6,37.4,76,30.28,10.0,West,9.2,17.3,N/A,,Mostly Cloudy,270,2013-01-06 16:05:00
10:23 AM,44.6,37.4,76,30.28,10.0,West,11.5,-,N/A,,Scattered Clouds,260,2013-01-06 16:23:00
10:53 AM,45.0,35.1,68,30.27,10.0,West,11.5,-,N/A,,Clear,280,2013-01-06 16:53:00
11:53 AM,48.9,34.0,56,30.24,10.0,WSW,9.2,17.3,N/A,,Clear,240,2013-01-06 17:53:00
12:53 PM,50.0,32.0,50,30.22,10.0,WSW,11.5,-,N/A,,Clear,250,2013-01-06 18:53:00
1:53 PM,50.0,30.0,46,30.23,10.0,WNW,13.8,20.7,N/A,,Clear,290,2013-01-06 19:53:00
2:53 PM,50.0,33.1,52,30.25,10.0,NNW,13.8,-,N/A,,Clear,340,2013-01-06 20:53:00
3:53 PM,46.0,32.0,58,30.29,10.0,NNW,18.4,23.0,N/A,,Clear,330,2013-01-06 21:53:00
4:53 PM,41.0,30.0,65,30.33,10.0,NNW,15.0,-,N/A,,Clear,340,2013-01-06 22:53:00
5:53 PM,37.0,28.9,73,30.35,10.0,NNW,5.8,-,N/A,,Clear,340,2013-01-06 23:53:00
6:53 PM,35.1,28.0,76,30.37,10.0,NNE,6.9,-,N/A,,Clear,20,2013-01-07 00:53:00
7:53 PM,33.1,26.1,75,30.38,10.0,North,4.6,-,N/A,,Clear,10,2013-01-07 01:53:00
8:53 PM,30.0,24.1,79,30.39,10.0,North,4.6,-,N/A,,Clear,10,2013-01-07 02:53:00
9:53 PM,27.0,24.1,89,30.41,10.0,Calm,Calm,-,N/A,,Clear,0,2013-01-07 03:53:00
10:53 PM,28.9,24.1,82,30.40,10.0,Calm,Calm,-,N/A,,Clear,0,2013-01-07 04:53:00
11:53 PM,30.0,24.1,79,30.40,10.0,Calm,Calm,-,N/A,,Clear,0,2013-01-07 05:53:00